Powrót do katalogu

IRIDIUM 33 DEB

AktywnyPO
NORAD 33776·DEBRIS·🇺🇸 United States

Wystrzelony Sep 14, 1997 z Baikonur Cosmodrome

Loading…

Następne Przeloty (najbliższe 24 godziny)

TLE

ŚwieżeSource: Space-Track

Epoka: Sep 14, 2026, 15:22 UTC

1 33776U 97051P   26257.64087317  .00000426  00000-0  13254-3 0  9996
2 33776  86.4069 324.8855 0014828  20.6776 141.4073 14.38629304920480

Śledź IRIDIUM 33 DEB w czasie rzeczywistym z AllMySat

Download on the App Store